Hourly Data Report for October 19, 2013

All times are specified in Local Standard Time (LST). Add 1 hour to adjust for Daylight Saving Time where and when it is observed.

POND INLET A
NUNAVUT

72°41'22.000" N
77°58'08.000" W
61.60 m
2403206
71095
YIO

Download Data

Hourly Data (October 2013)
Hourly Data Report for October 19, 2013
Temp Definition
°C
Dew Point Temp Definition
°C
Rel Hum Definition
%
Wind Dir Definition
10's deg

Wind Spd Definition
km/h
Visibility Definition
km
Stn Press Definition
kPa
Hmdx Definition


Wind Chill Definition


Weather Definition


TIME
00:00 Legend Double Dagger -3.5 -6.9 77 12 9 16.1 100.35   -7 LegendNANA
01:00 Legend Double Dagger -2.9 -6.9 74 9 4 16.1 100.37   -4 LegendNANA
02:00 Legend Double Dagger -2.1 -6.6 71 11 8 16.1 100.41   -5 LegendNANA
03:00 Legend Double Dagger -2.3 -6.1 76 13 4 16.1 100.44   -4 LegendNANA
04:00 Legend Double Dagger -1.7 -5.2 77 LegendMM 4 16.1 100.47   -3 LegendNANA
05:00 Legend Double Dagger -2.2 -5.7 77 3 5 16.1 100.49   -4 LegendNANA
06:00 Legend Double Dagger -2.2 -5.4 79 33 5 16.1 100.52   -4 LegendNANA
07:00 Legend Double Dagger -3.0 -5.5 83 16 8 16.1 100.56   -6 LegendNANA
08:00 Legend Double Dagger -2.2 -5.2 80 LegendMM 4 16.1 100.58   -4 LegendNANA
09:00 Legend Double Dagger -1.5 -4.8 78 LegendMM 5 16.1 100.61   -3 LegendNANA
10:00 Legend Double Dagger -1.7 -5.0 78   0 16.1 100.67     LegendNANA
11:00 Legend Double Dagger -1.5 -4.8 78 17 9 16.1 100.74   -5 LegendNANA
12:00 Legend Double Dagger -1.4 -3.9 83 34 5 16.1 100.78   -3 LegendNANA
13:00 Legend Double Dagger -1.8 -4.2 84 7 8 16.1 100.82   -5 LegendNANA
14:00 Legend Double Dagger -1.6 -4.1 83 10 4 16.1 100.84   -3 LegendNANA
15:00 Legend Double Dagger -4.0 -6.0 86 14 13 16.1 100.89   -9 LegendNANA
16:00 Legend Double Dagger -2.9 -5.5 83   0 16.1 100.93     LegendNANA
17:00 Legend Double Dagger -5.3 -9.3 74 14 11 16.1 100.96   -10 LegendNANA
18:00 Legend Double Dagger -4.8 -9.7 69 12 11 16.1 100.99   -9 LegendNANA
19:00 Legend Double Dagger -5.9 -9.8 74 14 18 16.1 101.01   -12 LegendNANA
20:00 Legend Double Dagger -3.8 -8.1 72 14 18 16.1 101.02   -10 LegendNANA
21:00 Legend Double Dagger -3.2 -6.7 77 15 15 16.1 101.04   -8 LegendNANA
22:00 Legend Double Dagger -3.2 -6.8 76 16 13 16.1 101.05   -8 LegendNANA
23:00 Legend Double Dagger -3.2 -5.4 85 18 13 16.1 101.09   -8 LegendNANA

Notes on Data Quality.

Legend

  • E = Estimated
  • M = Missing
  • NA = Not Available
  • ‡ = Partner data that is not subject to review by the National Climate Archives
Date modified: